When you browse on this site, cookies collect data to enhance your experience and personalize the content and advertising you see.
Visit our Privacy Policy to learn more. By continuing to use the site, you agree to this use of cookies and data.
  • In Portugal
  • List of Countries
  • For 7 days
  • Water Temperature
  • Weather Map
  • Weather Widgets
  • user-avatar
    Login

    Hourly Weather Smirnovka

    Today, 6 June, Saturday

    Time Temperature Precipitation Wind Pressure Humidity
    00:00 +8°C° 0 mm 5 mps 730 mmHg 85%
    01:00 +8°C° 0 mm 5 mps 730 mmHg 84%
    02:00 +8°C° 0 mm 5 mps 729 mmHg 83%
    03:00 +7°C° 0 mm 6 mps 729 mmHg 83%
    04:00 +7°C° 0.1 mm 6 mps 730 mmHg 83%
    05:00 +6°C° 0.1 mm 7 mps 730 mmHg 84%
    06:00 +6°C° 0 mm 7 mps 731 mmHg 87%
    07:00 +6°C° 1 mm 7 mps 731 mmHg 88%
    08:00 +6°C° 1 mm 7 mps 731 mmHg 88%
    09:00 +6°C° 1 mm 7 mps 731 mmHg 89%
    10:00 +5°C° 4 mm 8 mps 732 mmHg 91%
    11:00 +5°C° 4 mm 8 mps 732 mmHg 92%
    12:00 +5°C° 0 mm 9 mps 733 mmHg 93%
    13:00 +5°C° 4.5 mm 9 mps 733 mmHg 93%
    14:00 +5°C° 4.5 mm 8 mps 733 mmHg 93%
    15:00 +5°C° 4.5 mm 8 mps 733 mmHg 94%
    16:00 +6°C° 3.1 mm 7 mps 734 mmHg 94%
    17:00 +6°C° 3.1 mm 7 mps 735 mmHg 94%
    18:00 +8°C° 3.1 mm 6 mps 735 mmHg 94%
    19:00 +8°C° 1.1 mm 6 mps 736 mmHg 92%
    20:00 +8°C° 1.1 mm 5 mps 736 mmHg 90%
    21:00 +8°C° 1.1 mm 4 mps 736 mmHg 89%
    22:00 +8°C° 0.2 mm 4 mps 737 mmHg 89%
    23:00 +8°C° 0.2 mm 4 mps 737 mmHg 88%

    Tomorrow, 7 June, Sunday

    Time Temperature Precipitation Wind Pressure Humidity
    00:00 +8°C° 0.2 mm 4 mps 737 mmHg 88%
    01:00 +7°C° 0 mm 4 mps 737 mmHg 89%
    02:00 +7°C° 0 mm 4 mps 737 mmHg 90%
    03:00 +8°C° 0 mm 3 mps 737 mmHg 90%
    04:00 +8°C° 0 mm 3 mps 738 mmHg 89%
    05:00 +8°C° 0 mm 4 mps 738 mmHg 88%
    06:00 +10°C° 0 mm 4 mps 738 mmHg 86%
    07:00 +11°C° 0.3 mm 4 mps 738 mmHg 83%
    08:00 +12°C° 0.3 mm 5 mps 738 mmHg 81%
    09:00 +13°C° 0.3 mm 5 mps 737 mmHg 78%
    10:00 +12°C° 1.8 mm 5 mps 737 mmHg 80%
    11:00 +12°C° 1.8 mm 4 mps 737 mmHg 82%
    12:00 +12°C° 1.8 mm 4 mps 737 mmHg 84%
    13:00 +13°C° 1.1 mm 4 mps 737 mmHg 80%
    14:00 +14°C° 1.1 mm 5 mps 737 mmHg 76%
    15:00 +15°C° 1.1 mm 6 mps 737 mmHg 71%
    16:00 +15°C° 1.3 mm 5 mps 737 mmHg 74%
    17:00 +14°C° 1.3 mm 5 mps 737 mmHg 76%
    18:00 +14°C° 1.3 mm 4 mps 737 mmHg 79%
    19:00 +12°C° 1.2 mm 4 mps 737 mmHg 82%
    20:00 +11°C° 1.2 mm 4 mps 737 mmHg 86%
    21:00 +10°C° 1.2 mm 3 mps 737 mmHg 89%
    22:00 +10°C° 0.2 mm 3 mps 737 mmHg 90%
    23:00 +9°C° 0.2 mm 3 mps 737 mmHg 91%

    Day after tomorrow, 8 June, Monday

    Time Temperature Precipitation Wind Pressure Humidity
    00:00 +9°C° 0.2 mm 3 mps 737 mmHg 92%
    01:00 +8°C° 0 mm 2 mps 737 mmHg 91%
    02:00 +8°C° 0 mm 2 mps 737 mmHg 90%
    03:00 +7°C° 0 mm 2 mps 737 mmHg 89%
    04:00 +8°C° 0 mm 2 mps 737 mmHg 86%
    05:00 +9°C° 0 mm 2 mps 738 mmHg 83%
    06:00 +10°C° 0 mm 2 mps 738 mmHg 80%
    07:00 +12°C° 0 mm 3 mps 738 mmHg 71%
    08:00 +13°C° 0 mm 3 mps 738 mmHg 62%
    09:00 +15°C° 0 mm 4 mps 737 mmHg 54%
    10:00 +15°C° 0 mm 4 mps 737 mmHg 52%
    11:00 +17°C° 0 mm 4 mps 737 mmHg 50%
    12:00 +17°C° 0 mm 4 mps 737 mmHg 49%
    13:00 +18°C° 0 mm 4 mps 737 mmHg 49%
    14:00 +18°C° 0 mm 3 mps 737 mmHg 50%
    15:00 +18°C° 0 mm 3 mps 736 mmHg 50%
    16:00 +18°C° 0 mm 3 mps 736 mmHg 55%
    17:00 +18°C° 0 mm 2 mps 736 mmHg 59%
    18:00 +18°C° 0 mm 2 mps 736 mmHg 63%
    19:00 +16°C° 0 mm 2 mps 736 mmHg 64%
    20:00 +15°C° 0 mm 2 mps 736 mmHg 65%
    21:00 +14°C° 0 mm 1 mps 736 mmHg 65%
    22:00 +13°C° 0 mm 3 mps 735 mmHg 66%
    23:00 +12°C° 0 mm 4 mps 735 mmHg 66%

    9 June, Tuesday

    Time Temperature Precipitation Wind Pressure Humidity
    00:00 +12°C° 0 mm 5 mps 734 mmHg 67%
    01:00 +11°C° 0.8 mm 6 mps 733 mmHg 73%
    02:00 +10°C° 0.8 mm 7 mps 732 mmHg 80%
    03:00 +10°C° 0.8 mm 8 mps 731 mmHg 87%
    04:00 +10°C° 2.3 mm 8 mps 731 mmHg 89%
    05:00 +11°C° 2.3 mm 8 mps 730 mmHg 91%
    06:00 +11°C° 2.3 mm 8 mps 730 mmHg 93%
    07:00 +12°C° 1 mm 7 mps 731 mmHg 89%
    08:00 +14°C° 1 mm 6 mps 731 mmHg 86%
    09:00 +15°C° 1 mm 5 mps 731 mmHg 83%
    10:00 +15°C° 0.9 mm 5 mps 732 mmHg 82%
    11:00 +15°C° 0.9 mm 5 mps 732 mmHg 82%
    12:00 +17°C° 0.9 mm 4 mps 733 mmHg 81%
    13:00 +17°C° 0.4 mm 4 mps 733 mmHg 79%
    14:00 +17°C° 0.4 mm 4 mps 733 mmHg 78%
    15:00 +17°C° 0.4 mm 4 mps 733 mmHg 76%
    16:00 +17°C° 0.2 mm 4 mps 734 mmHg 76%
    17:00 +16°C° 0.2 mm 3 mps 734 mmHg 77%
    18:00 +16°C° 0.2 mm 3 mps 734 mmHg 77%
    19:00 +15°C° 0 mm 2 mps 734 mmHg 78%
    20:00 +14°C° 0 mm 2 mps 735 mmHg 78%
    21:00 +13°C° 0 mm 1 mps 735 mmHg 79%
    22:00 +12°C° 0 mm 1 mps 735 mmHg 79%
    23:00 +12°C° 0 mm 1 mps 736 mmHg 79%

    10 June, Wednesday

    Time Temperature Precipitation Wind Pressure Humidity
    00:00 +12°C° 0 mm 1 mps 736 mmHg 80%
    01:00 +11°C° 0 mm 1 mps 736 mmHg 81%
    02:00 +10°C° 0 mm 1 mps 736 mmHg 83%
    03:00 +10°C° 0 mm 1 mps 736 mmHg 85%
    04:00 +11°C° 0 mm 1 mps 737 mmHg 83%
    05:00 +12°C° 0 mm 1 mps 737 mmHg 80%
    06:00 +13°C° 0 mm 1 mps 737 mmHg 78%
    07:00 +14°C° 0 mm 2 mps 737 mmHg 74%
    08:00 +15°C° 0 mm 2 mps 737 mmHg 70%
    09:00 +17°C° 0 mm 3 mps 737 mmHg 66%
    10:00 +17°C° 0.1 mm 3 mps 737 mmHg 64%
    11:00 +18°C° 0.1 mm 3 mps 737 mmHg 62%
    12:00 +18°C° 0.1 mm 3 mps 737 mmHg 60%
    13:00 +19°C° 0.1 mm 3 mps 737 mmHg 60%
    14:00 +19°C° 0.1 mm 2 mps 737 mmHg 60%
    15:00 +19°C° 0.1 mm 2 mps 737 mmHg 61%
    16:00 +19°C° 0.1 mm 2 mps 737 mmHg 63%
    17:00 +19°C° 0.1 mm 2 mps 737 mmHg 64%
    18:00 +20°C° 0.1 mm 1 mps 737 mmHg 66%
    19:00 +18°C° 0.1 mm 1 mps 737 mmHg 71%
    20:00 +16°C° 0.1 mm 1 mps 737 mmHg 76%
    21:00 +14°C° 0.1 mm 1 mps 737 mmHg 80%
    22:00 +14°C° 0 mm 1 mps 737 mmHg 81%
    23:00 +13°C° 0 mm 1 mps 737 mmHg 82%

    11 June, Thursday

    Time Temperature Precipitation Wind Pressure Humidity
    00:00 +13°C° 0 mm 1 mps 737 mmHg 83%
    01:00 +13°C° 0.1 mm 1 mps 737 mmHg 83%
    02:00 +13°C° 0.1 mm 1 mps 737 mmHg 83%
    03:00 +13°C° 0.1 mm 1 mps 737 mmHg 84%
    04:00 +13°C° 0.4 mm 2 mps 737 mmHg 85%
    05:00 +13°C° 0.4 mm 2 mps 736 mmHg 87%
    06:00 +13°C° 0.4 mm 2 mps 736 mmHg 89%
    07:00 +14°C° 0.1 mm 2 mps 736 mmHg 87%
    08:00 +13°C° 0.1 mm 3 mps 736 mmHg 85%
    09:00 +14°C° 0.1 mm 3 mps 735 mmHg 83%
    10:00 +14°C° 0.5 mm 3 mps 735 mmHg 83%
    11:00 +16°C° 0.5 mm 3 mps 735 mmHg 84%
    12:00 +15°C° 0.5 mm 4 mps 735 mmHg 84%
    13:00 +14°C° 1 mm 4 mps 735 mmHg 85%
    14:00 +14°C° 1 mm 5 mps 735 mmHg 86%
    15:00 +14°C° 1 mm 6 mps 734 mmHg 87%
    16:00 +14°C° 0.3 mm 6 mps 735 mmHg 85%
    17:00 +15°C° 0.3 mm 5 mps 735 mmHg 82%
    18:00 +16°C° 0.3 mm 5 mps 735 mmHg 80%
    19:00 +15°C° 0.7 mm 4 mps 735 mmHg 82%
    20:00 +14°C° 0.7 mm 3 mps 735 mmHg 85%
    21:00 +14°C° 0.7 mm 2 mps 736 mmHg 87%
    22:00 +13°C° 0.1 mm 2 mps 736 mmHg 88%
    23:00 +12°C° 0.1 mm 2 mps 736 mmHg 89%
    Show more